Index of /20260508/WXO-DD/model_caps/3km/00/001
Name Last modified Size Description
Parent Directory -
20260508T00Z_MSC_CAPS_AbsoluteVorticity_IsbL-0250_RLatLon0.03_PT001H.grib2 2026-05-08 06:06 1.0M
20260508T00Z_MSC_CAPS_AbsoluteVorticity_IsbL-0500_RLatLon0.03_PT001H.grib2 2026-05-08 06:06 1.1M
20260508T00Z_MSC_CAPS_AbsoluteVorticity_IsbL-0700_RLatLon0.03_PT001H.grib2 2026-05-08 06:06 1.2M
20260508T00Z_MSC_CAPS_AbsoluteVorticity_IsbL-0850_RLatLon0.03_PT001H.grib2 2026-05-08 06:06 1.4M
20260508T00Z_MSC_CAPS_AbsoluteVorticity_IsbL-1000_RLatLon0.03_PT001H.grib2 2026-05-08 06:06 1.3M
20260508T00Z_MSC_CAPS_AirDensity_AGL-120m_RLatLon0.03_PT001H.grib2 2026-05-08 06:06 1.4M
20260508T00Z_MSC_CAPS_AirDensity_AGL-40m_RLatLon0.03_PT001H.grib2 2026-05-08 06:06 1.4M
20260508T00Z_MSC_CAPS_AirDensity_AGL-80m_RLatLon0.03_PT001H.grib2 2026-05-08 06:06 1.4M
20260508T00Z_MSC_CAPS_AirTemp_AGL-120m_RLatLon0.03_PT001H.grib2 2026-05-08 06:06 1.3M
20260508T00Z_MSC_CAPS_AirTemp_AGL-2m_RLatLon0.03_PT001H.grib2 2026-05-08 06:06 1.8M
20260508T00Z_MSC_CAPS_AirTemp_AGL-40m_RLatLon0.03_PT001H.grib2 2026-05-08 06:06 1.5M
20260508T00Z_MSC_CAPS_AirTemp_AGL-80m_RLatLon0.03_PT001H.grib2 2026-05-08 06:06 1.4M
20260508T00Z_MSC_CAPS_AirTemp_IsbL-0050_RLatLon0.03_PT001H.grib2 2026-05-08 06:06 701K
20260508T00Z_MSC_CAPS_AirTemp_IsbL-0100_RLatLon0.03_PT001H.grib2 2026-05-08 06:06 925K
20260508T00Z_MSC_CAPS_AirTemp_IsbL-0150_RLatLon0.03_PT001H.grib2 2026-05-08 06:06 727K
20260508T00Z_MSC_CAPS_AirTemp_IsbL-0175_RLatLon0.03_PT001H.grib2 2026-05-08 06:06 752K
20260508T00Z_MSC_CAPS_AirTemp_IsbL-0200_RLatLon0.03_PT001H.grib2 2026-05-08 06:06 772K
20260508T00Z_MSC_CAPS_AirTemp_IsbL-0225_RLatLon0.03_PT001H.grib2 2026-05-08 06:06 772K
20260508T00Z_MSC_CAPS_AirTemp_IsbL-0250_RLatLon0.03_PT001H.grib2 2026-05-08 06:06 1.0M
20260508T00Z_MSC_CAPS_AirTemp_IsbL-0275_RLatLon0.03_PT001H.grib2 2026-05-08 06:06 1.0M
20260508T00Z_MSC_CAPS_AirTemp_IsbL-0300_RLatLon0.03_PT001H.grib2 2026-05-08 06:06 1.0M
20260508T00Z_MSC_CAPS_AirTemp_IsbL-0350_RLatLon0.03_PT001H.grib2 2026-05-08 06:06 746K
20260508T00Z_MSC_CAPS_AirTemp_IsbL-0400_RLatLon0.03_PT001H.grib2 2026-05-08 06:06 743K
20260508T00Z_MSC_CAPS_AirTemp_IsbL-0450_RLatLon0.03_PT001H.grib2 2026-05-08 06:06 754K
20260508T00Z_MSC_CAPS_AirTemp_IsbL-0500_RLatLon0.03_PT001H.grib2 2026-05-08 06:06 763K
20260508T00Z_MSC_CAPS_AirTemp_IsbL-0550_RLatLon0.03_PT001H.grib2 2026-05-08 06:06 931K
20260508T00Z_MSC_CAPS_AirTemp_IsbL-0600_RLatLon0.03_PT001H.grib2 2026-05-08 06:06 943K
20260508T00Z_MSC_CAPS_AirTemp_IsbL-0650_RLatLon0.03_PT001H.grib2 2026-05-08 06:06 963K
20260508T00Z_MSC_CAPS_AirTemp_IsbL-0700_RLatLon0.03_PT001H.grib2 2026-05-08 06:06 837K
20260508T00Z_MSC_CAPS_AirTemp_IsbL-0750_RLatLon0.03_PT001H.grib2 2026-05-08 06:06 1.0M
20260508T00Z_MSC_CAPS_AirTemp_IsbL-0800_RLatLon0.03_PT001H.grib2 2026-05-08 06:06 1.0M
20260508T00Z_MSC_CAPS_AirTemp_IsbL-0850_RLatLon0.03_PT001H.grib2 2026-05-08 06:06 1.1M
20260508T00Z_MSC_CAPS_AirTemp_IsbL-0875_RLatLon0.03_PT001H.grib2 2026-05-08 06:06 1.0M
20260508T00Z_MSC_CAPS_AirTemp_IsbL-0900_RLatLon0.03_PT001H.grib2 2026-05-08 06:06 1.1M
20260508T00Z_MSC_CAPS_AirTemp_IsbL-0925_RLatLon0.03_PT001H.grib2 2026-05-08 06:06 1.0M
20260508T00Z_MSC_CAPS_AirTemp_IsbL-0950_RLatLon0.03_PT001H.grib2 2026-05-08 06:06 1.0M
20260508T00Z_MSC_CAPS_AirTemp_IsbL-0970_RLatLon0.03_PT001H.grib2 2026-05-08 06:06 1.0M
20260508T00Z_MSC_CAPS_AirTemp_IsbL-0985_RLatLon0.03_PT001H.grib2 2026-05-08 06:06 1.0M
20260508T00Z_MSC_CAPS_AirTemp_IsbL-1000_RLatLon0.03_PT001H.grib2 2026-05-08 06:06 1.0M
20260508T00Z_MSC_CAPS_AirTemp_IsbL-1015_RLatLon0.03_PT001H.grib2 2026-05-08 06:06 1.1M
20260508T00Z_MSC_CAPS_Albedo_Sfc_RLatLon0.03_PT001H.grib2 2026-05-08 06:06 2.7M
20260508T00Z_MSC_CAPS_CAPE_Sfc_RLatLon0.03_PT001H.grib2 2026-05-08 06:06 292K
20260508T00Z_MSC_CAPS_CloudWater_EAtm_RLatLon0.03_PT001H.grib2 2026-05-08 06:06 1.4M
20260508T00Z_MSC_CAPS_ConvectivePrecip-Accum_Sfc_RLatLon0.03_PT001H.grib2 2026-05-08 06:06 1.0M
20260508T00Z_MSC_CAPS_DewPointDepression_AGL-120m_RLatLon0.03_PT001H.grib2 2026-05-08 06:06 1.9M
20260508T00Z_MSC_CAPS_DewPointDepression_AGL-2m_RLatLon0.03_PT001H.grib2 2026-05-08 06:06 2.1M
20260508T00Z_MSC_CAPS_DewPointDepression_AGL-40m_RLatLon0.03_PT001H.grib2 2026-05-08 06:06 2.0M
20260508T00Z_MSC_CAPS_DewPointDepression_AGL-80m_RLatLon0.03_PT001H.grib2 2026-05-08 06:06 1.9M
20260508T00Z_MSC_CAPS_DewPointDepression_IsbL-0050_RLatLon0.03_PT001H.grib2 2026-05-08 06:06 4.0K
20260508T00Z_MSC_CAPS_DewPointDepression_IsbL-0100_RLatLon0.03_PT001H.grib2 2026-05-08 06:06 52K
20260508T00Z_MSC_CAPS_DewPointDepression_IsbL-0150_RLatLon0.03_PT001H.grib2 2026-05-08 06:06 77K
20260508T00Z_MSC_CAPS_DewPointDepression_IsbL-0175_RLatLon0.03_PT001H.grib2 2026-05-08 06:06 193K
20260508T00Z_MSC_CAPS_DewPointDepression_IsbL-0200_RLatLon0.03_PT001H.grib2 2026-05-08 06:06 364K
20260508T00Z_MSC_CAPS_DewPointDepression_IsbL-0225_RLatLon0.03_PT001H.grib2 2026-05-08 06:06 542K
20260508T00Z_MSC_CAPS_DewPointDepression_IsbL-0250_RLatLon0.03_PT001H.grib2 2026-05-08 06:06 788K
20260508T00Z_MSC_CAPS_DewPointDepression_IsbL-0275_RLatLon0.03_PT001H.grib2 2026-05-08 06:06 919K
20260508T00Z_MSC_CAPS_DewPointDepression_IsbL-0300_RLatLon0.03_PT001H.grib2 2026-05-08 06:06 966K
20260508T00Z_MSC_CAPS_DewPointDepression_IsbL-0350_RLatLon0.03_PT001H.grib2 2026-05-08 06:06 1.0M
20260508T00Z_MSC_CAPS_DewPointDepression_IsbL-0400_RLatLon0.03_PT001H.grib2 2026-05-08 06:06 1.0M
20260508T00Z_MSC_CAPS_DewPointDepression_IsbL-0450_RLatLon0.03_PT001H.grib2 2026-05-08 06:06 1.0M
20260508T00Z_MSC_CAPS_DewPointDepression_IsbL-0500_RLatLon0.03_PT001H.grib2 2026-05-08 06:06 1.0M
20260508T00Z_MSC_CAPS_DewPointDepression_IsbL-0550_RLatLon0.03_PT001H.grib2 2026-05-08 06:06 1.1M
20260508T00Z_MSC_CAPS_DewPointDepression_IsbL-0600_RLatLon0.03_PT001H.grib2 2026-05-08 06:06 1.1M
20260508T00Z_MSC_CAPS_DewPointDepression_IsbL-0650_RLatLon0.03_PT001H.grib2 2026-05-08 06:06 1.1M
20260508T00Z_MSC_CAPS_DewPointDepression_IsbL-0700_RLatLon0.03_PT001H.grib2 2026-05-08 06:06 1.2M
20260508T00Z_MSC_CAPS_DewPointDepression_IsbL-0750_RLatLon0.03_PT001H.grib2 2026-05-08 06:06 1.2M
20260508T00Z_MSC_CAPS_DewPointDepression_IsbL-0800_RLatLon0.03_PT001H.grib2 2026-05-08 06:06 1.2M
20260508T00Z_MSC_CAPS_DewPointDepression_IsbL-0850_RLatLon0.03_PT001H.grib2 2026-05-08 06:06 1.3M
20260508T00Z_MSC_CAPS_DewPointDepression_IsbL-0875_RLatLon0.03_PT001H.grib2 2026-05-08 06:06 1.3M
20260508T00Z_MSC_CAPS_DewPointDepression_IsbL-0900_RLatLon0.03_PT001H.grib2 2026-05-08 06:06 1.3M
20260508T00Z_MSC_CAPS_DewPointDepression_IsbL-0925_RLatLon0.03_PT001H.grib2 2026-05-08 06:06 1.3M
20260508T00Z_MSC_CAPS_DewPointDepression_IsbL-0950_RLatLon0.03_PT001H.grib2 2026-05-08 06:06 1.3M
20260508T00Z_MSC_CAPS_DewPointDepression_IsbL-0970_RLatLon0.03_PT001H.grib2 2026-05-08 06:06 1.3M
20260508T00Z_MSC_CAPS_DewPointDepression_IsbL-0985_RLatLon0.03_PT001H.grib2 2026-05-08 06:06 1.3M
20260508T00Z_MSC_CAPS_DewPointDepression_IsbL-1000_RLatLon0.03_PT001H.grib2 2026-05-08 06:06 1.3M
20260508T00Z_MSC_CAPS_DewPointDepression_IsbL-1015_RLatLon0.03_PT001H.grib2 2026-05-08 06:06 1.3M
20260508T00Z_MSC_CAPS_DewPoint_AGL-120m_RLatLon0.03_PT001H.grib2 2026-05-08 06:06 3.5M
20260508T00Z_MSC_CAPS_DewPoint_AGL-2m_RLatLon0.03_PT001H.grib2 2026-05-08 06:06 2.1M
20260508T00Z_MSC_CAPS_DewPoint_AGL-40m_RLatLon0.03_PT001H.grib2 2026-05-08 06:06 3.6M
20260508T00Z_MSC_CAPS_DewPoint_AGL-80m_RLatLon0.03_PT001H.grib2 2026-05-08 06:06 3.5M
20260508T00Z_MSC_CAPS_DownwardLongwaveRadiationFlux-Accum_Sfc_RLatLon0.03_PT001H.grib2 2026-05-08 06:06 2.4M
20260508T00Z_MSC_CAPS_DownwardShortwaveRadiationFlux-Accum_NTAtm_RLatLon0.03_PT001H.grib2 2026-05-08 06:06 313K
20260508T00Z_MSC_CAPS_DownwardShortwaveRadiationFlux-Accum_Sfc_RLatLon0.03_PT001H.grib2 2026-05-08 06:06 2.0M
20260508T00Z_MSC_CAPS_FreezingRain-Accum_Sfc_RLatLon0.03_PT001H.grib2 2026-05-08 06:06 89K
20260508T00Z_MSC_CAPS_GeopotentialHeight_IsbL-0050_RLatLon0.03_PT001H.grib2 2026-05-08 06:06 851K
20260508T00Z_MSC_CAPS_GeopotentialHeight_IsbL-0100_RLatLon0.03_PT001H.grib2 2026-05-08 06:06 744K
20260508T00Z_MSC_CAPS_GeopotentialHeight_IsbL-0150_RLatLon0.03_PT001H.grib2 2026-05-08 06:06 598K
20260508T00Z_MSC_CAPS_GeopotentialHeight_IsbL-0175_RLatLon0.03_PT001H.grib2 2026-05-08 06:06 712K
20260508T00Z_MSC_CAPS_GeopotentialHeight_IsbL-0200_RLatLon0.03_PT001H.grib2 2026-05-08 06:06 732K
20260508T00Z_MSC_CAPS_GeopotentialHeight_IsbL-0225_RLatLon0.03_PT001H.grib2 2026-05-08 06:06 746K
20260508T00Z_MSC_CAPS_GeopotentialHeight_IsbL-0250_RLatLon0.03_PT001H.grib2 2026-05-08 06:06 758K
20260508T00Z_MSC_CAPS_GeopotentialHeight_IsbL-0275_RLatLon0.03_PT001H.grib2 2026-05-08 06:06 768K
20260508T00Z_MSC_CAPS_GeopotentialHeight_IsbL-0300_RLatLon0.03_PT001H.grib2 2026-05-08 06:06 770K
20260508T00Z_MSC_CAPS_GeopotentialHeight_IsbL-0350_RLatLon0.03_PT001H.grib2 2026-05-08 06:06 774K
20260508T00Z_MSC_CAPS_GeopotentialHeight_IsbL-0400_RLatLon0.03_PT001H.grib2 2026-05-08 06:06 769K
20260508T00Z_MSC_CAPS_GeopotentialHeight_IsbL-0450_RLatLon0.03_PT001H.grib2 2026-05-08 06:06 761K
20260508T00Z_MSC_CAPS_GeopotentialHeight_IsbL-0500_RLatLon0.03_PT001H.grib2 2026-05-08 06:06 754K
20260508T00Z_MSC_CAPS_GeopotentialHeight_IsbL-0550_RLatLon0.03_PT001H.grib2 2026-05-08 06:06 746K
20260508T00Z_MSC_CAPS_GeopotentialHeight_IsbL-0600_RLatLon0.03_PT001H.grib2 2026-05-08 06:06 629K
20260508T00Z_MSC_CAPS_GeopotentialHeight_IsbL-0650_RLatLon0.03_PT001H.grib2 2026-05-08 06:06 623K
20260508T00Z_MSC_CAPS_GeopotentialHeight_IsbL-0700_RLatLon0.03_PT001H.grib2 2026-05-08 06:06 622K
20260508T00Z_MSC_CAPS_GeopotentialHeight_IsbL-0750_RLatLon0.03_PT001H.grib2 2026-05-08 06:06 622K
20260508T00Z_MSC_CAPS_GeopotentialHeight_IsbL-0800_RLatLon0.03_PT001H.grib2 2026-05-08 06:06 624K
20260508T00Z_MSC_CAPS_GeopotentialHeight_IsbL-0850_RLatLon0.03_PT001H.grib2 2026-05-08 06:06 625K
20260508T00Z_MSC_CAPS_GeopotentialHeight_IsbL-0875_RLatLon0.03_PT001H.grib2 2026-05-08 06:06 631K
20260508T00Z_MSC_CAPS_GeopotentialHeight_IsbL-0900_RLatLon0.03_PT001H.grib2 2026-05-08 06:06 825K
20260508T00Z_MSC_CAPS_GeopotentialHeight_IsbL-0925_RLatLon0.03_PT001H.grib2 2026-05-08 06:06 647K
20260508T00Z_MSC_CAPS_GeopotentialHeight_IsbL-0950_RLatLon0.03_PT001H.grib2 2026-05-08 06:06 654K
20260508T00Z_MSC_CAPS_GeopotentialHeight_IsbL-0970_RLatLon0.03_PT001H.grib2 2026-05-08 06:06 662K
20260508T00Z_MSC_CAPS_GeopotentialHeight_IsbL-0985_RLatLon0.03_PT001H.grib2 2026-05-08 06:06 668K
20260508T00Z_MSC_CAPS_GeopotentialHeight_IsbL-1000_RLatLon0.03_PT001H.grib2 2026-05-08 06:06 675K
20260508T00Z_MSC_CAPS_GeopotentialHeight_IsbL-1015_RLatLon0.03_PT001H.grib2 2026-05-08 06:06 682K
20260508T00Z_MSC_CAPS_GeopotentialHeight_Sfc_RLatLon0.03_PT001H.grib2 2026-05-08 06:06 1.0M
20260508T00Z_MSC_CAPS_IcePellets-Accum_Sfc_RLatLon0.03_PT001H.grib2 2026-05-08 06:06 1.1K
20260508T00Z_MSC_CAPS_LatentHeatNetFlux_Sfc_RLatLon0.03_PT001H.grib2 2026-05-08 06:06 1.9M
20260508T00Z_MSC_CAPS_LiftedIndex-MU-VT_IsbL-0500_RLatLon0.03_PT001H.grib2 2026-05-08 06:06 3.3M
20260508T00Z_MSC_CAPS_MixedLayerThickness_Sfc_RLatLon0.03_PT001H.nc 2026-05-08 06:12 16M
20260508T00Z_MSC_CAPS_NetLongwaveRadiationFlux-Accum_Sfc_RLatLon0.03_PT001H.grib2 2026-05-08 06:06 2.8M
20260508T00Z_MSC_CAPS_NetShortwaveRadiationFlux-Accum_Sfc_RLatLon0.03_PT001H.grib2 2026-05-08 06:06 2.1M
20260508T00Z_MSC_CAPS_PlanetaryBoundaryLayerHeight_Sfc_RLatLon0.03_PT001H.grib2 2026-05-08 06:06 2.5M
20260508T00Z_MSC_CAPS_Precip-Accum_Sfc_RLatLon0.03_PT001H.grib2 2026-05-08 06:06 2.4M
20260508T00Z_MSC_CAPS_PrecipRate_Sfc_RLatLon0.03_PT001H.grib2 2026-05-08 06:06 192K
20260508T00Z_MSC_CAPS_PrecipType-Instant_Sfc_RLatLon0.03_PT001H.grib2 2026-05-08 06:06 1.5M
20260508T00Z_MSC_CAPS_Pressure_MSL_RLatLon0.03_PT001H.grib2 2026-05-08 06:06 905K
20260508T00Z_MSC_CAPS_Pressure_Sfc_RLatLon0.03_PT001H.grib2 2026-05-08 06:06 1.2M
20260508T00Z_MSC_CAPS_RadiativeTemp_Sfc_RLatLon0.03_PT001H.grib2 2026-05-08 06:06 2.2M
20260508T00Z_MSC_CAPS_Rain-Accum_Sfc_RLatLon0.03_PT001H.grib2 2026-05-08 06:06 1.1M
20260508T00Z_MSC_CAPS_RelativeHumidity_AGL-120m_RLatLon0.03_PT001H.grib2 2026-05-08 06:06 2.7M
20260508T00Z_MSC_CAPS_RelativeHumidity_AGL-2m_RLatLon0.03_PT001H.grib2 2026-05-08 06:06 2.9M
20260508T00Z_MSC_CAPS_RelativeHumidity_AGL-40m_RLatLon0.03_PT001H.grib2 2026-05-08 06:06 2.8M
20260508T00Z_MSC_CAPS_RelativeHumidity_AGL-80m_RLatLon0.03_PT001H.grib2 2026-05-08 06:06 2.6M
20260508T00Z_MSC_CAPS_RelativeHumidity_IsbL-0050_RLatLon0.03_PT001H.grib2 2026-05-08 06:06 703K
20260508T00Z_MSC_CAPS_RelativeHumidity_IsbL-0100_RLatLon0.03_PT001H.grib2 2026-05-08 06:06 1.1M
20260508T00Z_MSC_CAPS_RelativeHumidity_IsbL-0150_RLatLon0.03_PT001H.grib2 2026-05-08 06:06 557K
20260508T00Z_MSC_CAPS_RelativeHumidity_IsbL-0175_RLatLon0.03_PT001H.grib2 2026-05-08 06:06 439K
20260508T00Z_MSC_CAPS_RelativeHumidity_IsbL-0200_RLatLon0.03_PT001H.grib2 2026-05-08 06:06 626K
20260508T00Z_MSC_CAPS_RelativeHumidity_IsbL-0225_RLatLon0.03_PT001H.grib2 2026-05-08 06:06 916K
20260508T00Z_MSC_CAPS_RelativeHumidity_IsbL-0250_RLatLon0.03_PT001H.grib2 2026-05-08 06:06 1.0M
20260508T00Z_MSC_CAPS_RelativeHumidity_IsbL-0275_RLatLon0.03_PT001H.grib2 2026-05-08 06:06 1.3M
20260508T00Z_MSC_CAPS_RelativeHumidity_IsbL-0300_RLatLon0.03_PT001H.grib2 2026-05-08 06:06 1.6M
20260508T00Z_MSC_CAPS_RelativeHumidity_IsbL-0350_RLatLon0.03_PT001H.grib2 2026-05-08 06:06 1.8M
20260508T00Z_MSC_CAPS_RelativeHumidity_IsbL-0400_RLatLon0.03_PT001H.grib2 2026-05-08 06:06 1.9M
20260508T00Z_MSC_CAPS_RelativeHumidity_IsbL-0450_RLatLon0.03_PT001H.grib2 2026-05-08 06:06 1.8M
20260508T00Z_MSC_CAPS_RelativeHumidity_IsbL-0500_RLatLon0.03_PT001H.grib2 2026-05-08 06:06 2.0M
20260508T00Z_MSC_CAPS_RelativeHumidity_IsbL-0550_RLatLon0.03_PT001H.grib2 2026-05-08 06:06 1.9M
20260508T00Z_MSC_CAPS_RelativeHumidity_IsbL-0600_RLatLon0.03_PT001H.grib2 2026-05-08 06:06 2.1M
20260508T00Z_MSC_CAPS_RelativeHumidity_IsbL-0650_RLatLon0.03_PT001H.grib2 2026-05-08 06:06 2.1M
20260508T00Z_MSC_CAPS_RelativeHumidity_IsbL-0700_RLatLon0.03_PT001H.grib2 2026-05-08 06:06 2.1M
20260508T00Z_MSC_CAPS_RelativeHumidity_IsbL-0750_RLatLon0.03_PT001H.grib2 2026-05-08 06:06 2.3M
20260508T00Z_MSC_CAPS_RelativeHumidity_IsbL-0800_RLatLon0.03_PT001H.grib2 2026-05-08 06:06 2.4M
20260508T00Z_MSC_CAPS_RelativeHumidity_IsbL-0850_RLatLon0.03_PT001H.grib2 2026-05-08 06:06 2.5M
20260508T00Z_MSC_CAPS_RelativeHumidity_IsbL-0875_RLatLon0.03_PT001H.grib2 2026-05-08 06:06 2.5M
20260508T00Z_MSC_CAPS_RelativeHumidity_IsbL-0900_RLatLon0.03_PT001H.grib2 2026-05-08 06:06 2.5M
20260508T00Z_MSC_CAPS_RelativeHumidity_IsbL-0925_RLatLon0.03_PT001H.grib2 2026-05-08 06:06 2.6M
20260508T00Z_MSC_CAPS_RelativeHumidity_IsbL-0950_RLatLon0.03_PT001H.grib2 2026-05-08 06:06 2.7M
20260508T00Z_MSC_CAPS_RelativeHumidity_IsbL-0970_RLatLon0.03_PT001H.grib2 2026-05-08 06:06 2.7M
20260508T00Z_MSC_CAPS_RelativeHumidity_IsbL-0985_RLatLon0.03_PT001H.grib2 2026-05-08 06:06 2.8M
20260508T00Z_MSC_CAPS_RelativeHumidity_IsbL-1000_RLatLon0.03_PT001H.grib2 2026-05-08 06:06 2.8M
20260508T00Z_MSC_CAPS_RelativeHumidity_IsbL-1015_RLatLon0.03_PT001H.grib2 2026-05-08 06:06 2.9M
20260508T00Z_MSC_CAPS_Runoff-Accum_Sfc_RLatLon0.03_PT001H.grib2 2026-05-08 06:06 263K
20260508T00Z_MSC_CAPS_SeaIceAreaFraction_Sfc_RLatLon0.03_PT001H.nc 2026-05-08 06:12 15M
20260508T00Z_MSC_CAPS_SeaIceCompressiveStrength_Sfc_RLatLon0.03_PT001H.nc 2026-05-08 06:12 15M
20260508T00Z_MSC_CAPS_SeaIceDivergence_Sfc_RLatLon0.03_PT001H.nc 2026-05-08 06:12 15M
20260508T00Z_MSC_CAPS_SeaIceInternalPressure_Sfc_RLatLon0.03_PT001H.nc 2026-05-08 06:12 15M
20260508T00Z_MSC_CAPS_SeaIceShear_Sfc_RLatLon0.03_PT001H.nc 2026-05-08 06:12 15M
20260508T00Z_MSC_CAPS_SeaIceSnowTemp_Sfc_RLatLon0.03_PT001H.nc 2026-05-08 06:12 14M
20260508T00Z_MSC_CAPS_SeaIceSnowVolume_Sfc_RLatLon0.03_PT001H.nc 2026-05-08 06:12 15M
20260508T00Z_MSC_CAPS_SeaIceVelocityX_Sfc_RLatLon0.03_PT001H.nc 2026-05-08 06:12 15M
20260508T00Z_MSC_CAPS_SeaIceVelocityY_Sfc_RLatLon0.03_PT001H.nc 2026-05-08 06:12 15M
20260508T00Z_MSC_CAPS_SeaIceVolume_Sfc_RLatLon0.03_PT001H.nc 2026-05-08 06:12 15M
20260508T00Z_MSC_CAPS_SeaSurfaceHeight_Sfc_RLatLon0.03_PT001H.nc 2026-05-08 06:12 16M
20260508T00Z_MSC_CAPS_SeaWaterSalinity_DBS-0.5m_RLatLon0.03_PT001H.nc 2026-05-08 06:12 16M
20260508T00Z_MSC_CAPS_SeaWaterSalinity_DBS-all_RLatLon0.03_PT001H.nc 2026-05-08 06:12 107M
20260508T00Z_MSC_CAPS_SeaWaterTemp_DBS-0.5m_RLatLon0.03_PT001H.nc 2026-05-08 06:12 15M
20260508T00Z_MSC_CAPS_SeaWaterTemp_DBS-all_RLatLon0.03_PT001H.nc 2026-05-08 06:12 88M
20260508T00Z_MSC_CAPS_SeaWaterVelocityX_DBS-0.5m_RLatLon0.03_PT001H.nc 2026-05-08 06:12 17M
20260508T00Z_MSC_CAPS_SeaWaterVelocityX_DBS-all_RLatLon0.03_PT001H.nc 2026-05-08 06:12 212M
20260508T00Z_MSC_CAPS_SeaWaterVelocityY_DBS-0.5m_RLatLon0.03_PT001H.nc 2026-05-08 06:12 18M
20260508T00Z_MSC_CAPS_SeaWaterVelocityY_DBS-all_RLatLon0.03_PT001H.nc 2026-05-08 06:12 218M
20260508T00Z_MSC_CAPS_SensibleHeatNetFlux_Sfc_RLatLon0.03_PT001H.grib2 2026-05-08 06:06 1.8M
20260508T00Z_MSC_CAPS_ShowalterIndex_IsbL-0500_RLatLon0.03_PT001H.grib2 2026-05-08 06:06 4.3M
20260508T00Z_MSC_CAPS_Snow-Accum_Sfc_RLatLon0.03_PT001H.grib2 2026-05-08 06:06 1.6M
20260508T00Z_MSC_CAPS_SnowDensity_Sfc_RLatLon0.03_PT001H.grib2 2026-05-08 06:06 1.1M
20260508T00Z_MSC_CAPS_SnowDepthWaterEquivalent_Sfc_RLatLon0.03_PT001H.grib2 2026-05-08 06:06 635K
20260508T00Z_MSC_CAPS_SnowDepth_Sfc_RLatLon0.03_PT001H.grib2 2026-05-08 06:06 1.1M
20260508T00Z_MSC_CAPS_SoilTemp_DBS-0to10cm_RLatLon0.03_PT001H.grib2 2026-05-08 06:06 1.1M
20260508T00Z_MSC_CAPS_SoilTemp_Sfc_RLatLon0.03_PT001H.grib2 2026-05-08 06:06 1.8M
20260508T00Z_MSC_CAPS_SoilVolumetricIceContent_Sfc_RLatLon0.03_PT001H.grib2 2026-05-08 06:06 1.2M
20260508T00Z_MSC_CAPS_SoilVolumetricWaterContent_DBS-0to10cm_RLatLon0.03_PT001H.grib2 2026-05-08 06:06 1.3M
20260508T00Z_MSC_CAPS_SoilVolumetricWaterContent_DBS-0to1cm_RLatLon0.03_PT001H.grib2 2026-05-08 06:06 1.7M
20260508T00Z_MSC_CAPS_SpecificHumidity_AGL-120m_RLatLon0.03_PT001H.grib2 2026-05-08 06:06 1.3M
20260508T00Z_MSC_CAPS_SpecificHumidity_AGL-2m_RLatLon0.03_PT001H.grib2 2026-05-08 06:06 1.7M
20260508T00Z_MSC_CAPS_SpecificHumidity_AGL-40m_RLatLon0.03_PT001H.grib2 2026-05-08 06:06 1.4M
20260508T00Z_MSC_CAPS_SpecificHumidity_AGL-80m_RLatLon0.03_PT001H.grib2 2026-05-08 06:06 1.3M
20260508T00Z_MSC_CAPS_SpecificHumidity_IsbL-0050_RLatLon0.03_PT001H.grib2 2026-05-08 06:06 854K
20260508T00Z_MSC_CAPS_SpecificHumidity_IsbL-0100_RLatLon0.03_PT001H.grib2 2026-05-08 06:06 1.0M
20260508T00Z_MSC_CAPS_SpecificHumidity_IsbL-0150_RLatLon0.03_PT001H.grib2 2026-05-08 06:06 954K
20260508T00Z_MSC_CAPS_SpecificHumidity_IsbL-0175_RLatLon0.03_PT001H.grib2 2026-05-08 06:06 934K
20260508T00Z_MSC_CAPS_SpecificHumidity_IsbL-0200_RLatLon0.03_PT001H.grib2 2026-05-08 06:06 822K
20260508T00Z_MSC_CAPS_SpecificHumidity_IsbL-0225_RLatLon0.03_PT001H.grib2 2026-05-08 06:06 891K
20260508T00Z_MSC_CAPS_SpecificHumidity_IsbL-0250_RLatLon0.03_PT001H.grib2 2026-05-08 06:06 802K
20260508T00Z_MSC_CAPS_SpecificHumidity_IsbL-0275_RLatLon0.03_PT001H.grib2 2026-05-08 06:06 1.0M
20260508T00Z_MSC_CAPS_SpecificHumidity_IsbL-0300_RLatLon0.03_PT001H.grib2 2026-05-08 06:06 1.0M
20260508T00Z_MSC_CAPS_SpecificHumidity_IsbL-0350_RLatLon0.03_PT001H.grib2 2026-05-08 06:06 899K
20260508T00Z_MSC_CAPS_SpecificHumidity_IsbL-0400_RLatLon0.03_PT001H.grib2 2026-05-08 06:06 902K
20260508T00Z_MSC_CAPS_SpecificHumidity_IsbL-0450_RLatLon0.03_PT001H.grib2 2026-05-08 06:06 1.0M
20260508T00Z_MSC_CAPS_SpecificHumidity_IsbL-0500_RLatLon0.03_PT001H.grib2 2026-05-08 06:06 973K
20260508T00Z_MSC_CAPS_SpecificHumidity_IsbL-0550_RLatLon0.03_PT001H.grib2 2026-05-08 06:06 1.1M
20260508T00Z_MSC_CAPS_SpecificHumidity_IsbL-0600_RLatLon0.03_PT001H.grib2 2026-05-08 06:06 1.2M
20260508T00Z_MSC_CAPS_SpecificHumidity_IsbL-0650_RLatLon0.03_PT001H.grib2 2026-05-08 06:06 1.0M
20260508T00Z_MSC_CAPS_SpecificHumidity_IsbL-0700_RLatLon0.03_PT001H.grib2 2026-05-08 06:06 1.1M
20260508T00Z_MSC_CAPS_SpecificHumidity_IsbL-0750_RLatLon0.03_PT001H.grib2 2026-05-08 06:06 1.3M
20260508T00Z_MSC_CAPS_SpecificHumidity_IsbL-0800_RLatLon0.03_PT001H.grib2 2026-05-08 06:06 1.5M
20260508T00Z_MSC_CAPS_SpecificHumidity_IsbL-0850_RLatLon0.03_PT001H.grib2 2026-05-08 06:06 1.6M
20260508T00Z_MSC_CAPS_SpecificHumidity_IsbL-0875_RLatLon0.03_PT001H.grib2 2026-05-08 06:06 1.3M
20260508T00Z_MSC_CAPS_SpecificHumidity_IsbL-0900_RLatLon0.03_PT001H.grib2 2026-05-08 06:06 1.4M
20260508T00Z_MSC_CAPS_SpecificHumidity_IsbL-0925_RLatLon0.03_PT001H.grib2 2026-05-08 06:06 1.4M
20260508T00Z_MSC_CAPS_SpecificHumidity_IsbL-0950_RLatLon0.03_PT001H.grib2 2026-05-08 06:06 1.5M
20260508T00Z_MSC_CAPS_SpecificHumidity_IsbL-0970_RLatLon0.03_PT001H.grib2 2026-05-08 06:06 1.6M
20260508T00Z_MSC_CAPS_SpecificHumidity_IsbL-0985_RLatLon0.03_PT001H.grib2 2026-05-08 06:06 1.6M
20260508T00Z_MSC_CAPS_SpecificHumidity_IsbL-1000_RLatLon0.03_PT001H.grib2 2026-05-08 06:06 1.7M
20260508T00Z_MSC_CAPS_SpecificHumidity_IsbL-1015_RLatLon0.03_PT001H.grib2 2026-05-08 06:06 1.7M
20260508T00Z_MSC_CAPS_SpecificHumidity_Sfc_RLatLon0.03_PT001H.grib2 2026-05-08 06:06 2.1M
20260508T00Z_MSC_CAPS_StormRelativeHelicity_Sfc_RLatLon0.03_PT001H.grib2 2026-05-08 06:06 3.1M
20260508T00Z_MSC_CAPS_Thickness_IsbL-1000to0500_RLatLon0.03_PT001H.grib2 2026-05-08 06:06 414K
20260508T00Z_MSC_CAPS_TotalCloudCover_Sfc_RLatLon0.03_PT001H.grib2 2026-05-08 06:06 3.3M
20260508T00Z_MSC_CAPS_TurboclineDepth_Sfc_RLatLon0.03_PT001H.nc 2026-05-08 06:12 16M
20260508T00Z_MSC_CAPS_UpwardLongwaveRadiationFlux_NTAtm_RLatLon0.03_PT001H.grib2 2026-05-08 06:06 2.8M
20260508T00Z_MSC_CAPS_UpwardShortwaveRadiationFlux_NTAtm_RLatLon0.03_PT001H.grib2 2026-05-08 06:06 2.0M
20260508T00Z_MSC_CAPS_VerticalVelocity_IsbL-0250_RLatLon0.03_PT001H.grib2 2026-05-08 06:06 1.2M
20260508T00Z_MSC_CAPS_VerticalVelocity_IsbL-0500_RLatLon0.03_PT001H.grib2 2026-05-08 06:06 1.3M
20260508T00Z_MSC_CAPS_VerticalVelocity_IsbL-0700_RLatLon0.03_PT001H.grib2 2026-05-08 06:06 1.1M
20260508T00Z_MSC_CAPS_VerticalVelocity_IsbL-0850_RLatLon0.03_PT001H.grib2 2026-05-08 06:06 1.3M
20260508T00Z_MSC_CAPS_VerticalVelocity_IsbL-1000_RLatLon0.03_PT001H.grib2 2026-05-08 06:06 1.3M
20260508T00Z_MSC_CAPS_WindDir_AGL-10m_RLatLon0.03_PT001H.grib2 2026-05-08 06:06 2.4M
20260508T00Z_MSC_CAPS_WindDir_AGL-120m_RLatLon0.03_PT001H.grib2 2026-05-08 06:06 1.3M
20260508T00Z_MSC_CAPS_WindDir_AGL-40m_RLatLon0.03_PT001H.grib2 2026-05-08 06:06 1.4M
20260508T00Z_MSC_CAPS_WindDir_AGL-80m_RLatLon0.03_PT001H.grib2 2026-05-08 06:06 1.3M
20260508T00Z_MSC_CAPS_WindDir_IsbL-0050_RLatLon0.03_PT001H.grib2 2026-05-08 06:06 1.1M
20260508T00Z_MSC_CAPS_WindDir_IsbL-0100_RLatLon0.03_PT001H.grib2 2026-05-08 06:06 1.0M
20260508T00Z_MSC_CAPS_WindDir_IsbL-0150_RLatLon0.03_PT001H.grib2 2026-05-08 06:06 1.0M
20260508T00Z_MSC_CAPS_WindDir_IsbL-0175_RLatLon0.03_PT001H.grib2 2026-05-08 06:06 1.1M
20260508T00Z_MSC_CAPS_WindDir_IsbL-0200_RLatLon0.03_PT001H.grib2 2026-05-08 06:06 1.1M
20260508T00Z_MSC_CAPS_WindDir_IsbL-0225_RLatLon0.03_PT001H.grib2 2026-05-08 06:06 1.1M
20260508T00Z_MSC_CAPS_WindDir_IsbL-0250_RLatLon0.03_PT001H.grib2 2026-05-08 06:06 1.1M
20260508T00Z_MSC_CAPS_WindDir_IsbL-0275_RLatLon0.03_PT001H.grib2 2026-05-08 06:06 1.1M
20260508T00Z_MSC_CAPS_WindDir_IsbL-0300_RLatLon0.03_PT001H.grib2 2026-05-08 06:06 1.1M
20260508T00Z_MSC_CAPS_WindDir_IsbL-0350_RLatLon0.03_PT001H.grib2 2026-05-08 06:06 1.1M
20260508T00Z_MSC_CAPS_WindDir_IsbL-0400_RLatLon0.03_PT001H.grib2 2026-05-08 06:06 1.2M
20260508T00Z_MSC_CAPS_WindDir_IsbL-0450_RLatLon0.03_PT001H.grib2 2026-05-08 06:06 1.2M
20260508T00Z_MSC_CAPS_WindDir_IsbL-0500_RLatLon0.03_PT001H.grib2 2026-05-08 06:06 1.2M
20260508T00Z_MSC_CAPS_WindDir_IsbL-0550_RLatLon0.03_PT001H.grib2 2026-05-08 06:06 1.3M
20260508T00Z_MSC_CAPS_WindDir_IsbL-0600_RLatLon0.03_PT001H.grib2 2026-05-08 06:06 1.3M
20260508T00Z_MSC_CAPS_WindDir_IsbL-0650_RLatLon0.03_PT001H.grib2 2026-05-08 06:06 1.4M
20260508T00Z_MSC_CAPS_WindDir_IsbL-0700_RLatLon0.03_PT001H.grib2 2026-05-08 06:06 1.4M
20260508T00Z_MSC_CAPS_WindDir_IsbL-0750_RLatLon0.03_PT001H.grib2 2026-05-08 06:06 1.6M
20260508T00Z_MSC_CAPS_WindDir_IsbL-0800_RLatLon0.03_PT001H.grib2 2026-05-08 06:06 1.7M
20260508T00Z_MSC_CAPS_WindDir_IsbL-0850_RLatLon0.03_PT001H.grib2 2026-05-08 06:06 1.8M
20260508T00Z_MSC_CAPS_WindDir_IsbL-0875_RLatLon0.03_PT001H.grib2 2026-05-08 06:06 1.9M
20260508T00Z_MSC_CAPS_WindDir_IsbL-0900_RLatLon0.03_PT001H.grib2 2026-05-08 06:06 1.9M
20260508T00Z_MSC_CAPS_WindDir_IsbL-0925_RLatLon0.03_PT001H.grib2 2026-05-08 06:06 2.0M
20260508T00Z_MSC_CAPS_WindDir_IsbL-0950_RLatLon0.03_PT001H.grib2 2026-05-08 06:06 2.1M
20260508T00Z_MSC_CAPS_WindDir_IsbL-0970_RLatLon0.03_PT001H.grib2 2026-05-08 06:06 2.1M
20260508T00Z_MSC_CAPS_WindDir_IsbL-0985_RLatLon0.03_PT001H.grib2 2026-05-08 06:06 2.2M
20260508T00Z_MSC_CAPS_WindDir_IsbL-1000_RLatLon0.03_PT001H.grib2 2026-05-08 06:06 2.3M
20260508T00Z_MSC_CAPS_WindDir_IsbL-1015_RLatLon0.03_PT001H.grib2 2026-05-08 06:06 2.4M
20260508T00Z_MSC_CAPS_WindGust-Max_AGL-10m_RLatLon0.03_PT001H.grib2 2026-05-08 06:06 2.5M
20260508T00Z_MSC_CAPS_WindGust-Min_AGL-10m_RLatLon0.03_PT001H.grib2 2026-05-08 06:06 2.3M
20260508T00Z_MSC_CAPS_WindGust_AGL-10m_RLatLon0.03_PT001H.grib2 2026-05-08 06:06 2.4M
20260508T00Z_MSC_CAPS_WindSpeed_AGL-10m_RLatLon0.03_PT001H.grib2 2026-05-08 06:06 2.0M
20260508T00Z_MSC_CAPS_WindSpeed_AGL-120m_RLatLon0.03_PT001H.grib2 2026-05-08 06:06 1.4M
20260508T00Z_MSC_CAPS_WindSpeed_AGL-40m_RLatLon0.03_PT001H.grib2 2026-05-08 06:06 1.5M
20260508T00Z_MSC_CAPS_WindSpeed_AGL-80m_RLatLon0.03_PT001H.grib2 2026-05-08 06:06 1.4M
20260508T00Z_MSC_CAPS_WindSpeed_IsbL-0050_RLatLon0.03_PT001H.grib2 2026-05-08 06:06 961K
20260508T00Z_MSC_CAPS_WindSpeed_IsbL-0100_RLatLon0.03_PT001H.grib2 2026-05-08 06:06 1.1M
20260508T00Z_MSC_CAPS_WindSpeed_IsbL-0150_RLatLon0.03_PT001H.grib2 2026-05-08 06:06 1.0M
20260508T00Z_MSC_CAPS_WindSpeed_IsbL-0175_RLatLon0.03_PT001H.grib2 2026-05-08 06:06 838K
20260508T00Z_MSC_CAPS_WindSpeed_IsbL-0200_RLatLon0.03_PT001H.grib2 2026-05-08 06:06 1.0M
20260508T00Z_MSC_CAPS_WindSpeed_IsbL-0225_RLatLon0.03_PT001H.grib2 2026-05-08 06:06 1.0M
20260508T00Z_MSC_CAPS_WindSpeed_IsbL-0250_RLatLon0.03_PT001H.grib2 2026-05-08 06:06 1.0M
20260508T00Z_MSC_CAPS_WindSpeed_IsbL-0275_RLatLon0.03_PT001H.grib2 2026-05-08 06:06 1.0M
20260508T00Z_MSC_CAPS_WindSpeed_IsbL-0300_RLatLon0.03_PT001H.grib2 2026-05-08 06:06 1.0M
20260508T00Z_MSC_CAPS_WindSpeed_IsbL-0350_RLatLon0.03_PT001H.grib2 2026-05-08 06:06 1.0M
20260508T00Z_MSC_CAPS_WindSpeed_IsbL-0400_RLatLon0.03_PT001H.grib2 2026-05-08 06:06 1.3M
20260508T00Z_MSC_CAPS_WindSpeed_IsbL-0450_RLatLon0.03_PT001H.grib2 2026-05-08 06:06 1.3M
20260508T00Z_MSC_CAPS_WindSpeed_IsbL-0500_RLatLon0.03_PT001H.grib2 2026-05-08 06:06 1.3M
20260508T00Z_MSC_CAPS_WindSpeed_IsbL-0550_RLatLon0.03_PT001H.grib2 2026-05-08 06:06 1.4M
20260508T00Z_MSC_CAPS_WindSpeed_IsbL-0600_RLatLon0.03_PT001H.grib2 2026-05-08 06:06 1.3M
20260508T00Z_MSC_CAPS_WindSpeed_IsbL-0650_RLatLon0.03_PT001H.grib2 2026-05-08 06:06 1.5M
20260508T00Z_MSC_CAPS_WindSpeed_IsbL-0700_RLatLon0.03_PT001H.grib2 2026-05-08 06:06 1.4M
20260508T00Z_MSC_CAPS_WindSpeed_IsbL-0750_RLatLon0.03_PT001H.grib2 2026-05-08 06:06 1.5M
20260508T00Z_MSC_CAPS_WindSpeed_IsbL-0800_RLatLon0.03_PT001H.grib2 2026-05-08 06:06 1.6M
20260508T00Z_MSC_CAPS_WindSpeed_IsbL-0850_RLatLon0.03_PT001H.grib2 2026-05-08 06:06 1.7M
20260508T00Z_MSC_CAPS_WindSpeed_IsbL-0875_RLatLon0.03_PT001H.grib2 2026-05-08 06:06 1.7M
20260508T00Z_MSC_CAPS_WindSpeed_IsbL-0900_RLatLon0.03_PT001H.grib2 2026-05-08 06:06 1.8M
20260508T00Z_MSC_CAPS_WindSpeed_IsbL-0925_RLatLon0.03_PT001H.grib2 2026-05-08 06:06 1.8M
20260508T00Z_MSC_CAPS_WindSpeed_IsbL-0950_RLatLon0.03_PT001H.grib2 2026-05-08 06:06 1.8M
20260508T00Z_MSC_CAPS_WindSpeed_IsbL-0970_RLatLon0.03_PT001H.grib2 2026-05-08 06:06 1.9M
20260508T00Z_MSC_CAPS_WindSpeed_IsbL-0985_RLatLon0.03_PT001H.grib2 2026-05-08 06:06 1.9M
20260508T00Z_MSC_CAPS_WindSpeed_IsbL-1000_RLatLon0.03_PT001H.grib2 2026-05-08 06:06 2.0M
20260508T00Z_MSC_CAPS_WindSpeed_IsbL-1015_RLatLon0.03_PT001H.grib2 2026-05-08 06:06 2.0M
20260508T00Z_MSC_CAPS_WindU_AGL-10m_RLatLon0.03_PT001H.grib2 2026-05-08 06:06 2.0M
20260508T00Z_MSC_CAPS_WindU_AGL-120m_RLatLon0.03_PT001H.grib2 2026-05-08 06:06 1.1M
20260508T00Z_MSC_CAPS_WindU_AGL-40m_RLatLon0.03_PT001H.grib2 2026-05-08 06:06 1.2M
20260508T00Z_MSC_CAPS_WindU_AGL-80m_RLatLon0.03_PT001H.grib2 2026-05-08 06:06 1.1M
20260508T00Z_MSC_CAPS_WindU_IsbL-0050_RLatLon0.03_PT001H.grib2 2026-05-08 06:06 957K
20260508T00Z_MSC_CAPS_WindU_IsbL-0100_RLatLon0.03_PT001H.grib2 2026-05-08 06:06 768K
20260508T00Z_MSC_CAPS_WindU_IsbL-0150_RLatLon0.03_PT001H.grib2 2026-05-08 06:06 899K
20260508T00Z_MSC_CAPS_WindU_IsbL-0175_RLatLon0.03_PT001H.grib2 2026-05-08 06:06 710K
20260508T00Z_MSC_CAPS_WindU_IsbL-0200_RLatLon0.03_PT001H.grib2 2026-05-08 06:06 862K
20260508T00Z_MSC_CAPS_WindU_IsbL-0225_RLatLon0.03_PT001H.grib2 2026-05-08 06:06 882K
20260508T00Z_MSC_CAPS_WindU_IsbL-0250_RLatLon0.03_PT001H.grib2 2026-05-08 06:06 904K
20260508T00Z_MSC_CAPS_WindU_IsbL-0275_RLatLon0.03_PT001H.grib2 2026-05-08 06:06 911K
20260508T00Z_MSC_CAPS_WindU_IsbL-0300_RLatLon0.03_PT001H.grib2 2026-05-08 06:06 923K
20260508T00Z_MSC_CAPS_WindU_IsbL-0350_RLatLon0.03_PT001H.grib2 2026-05-08 06:06 939K
20260508T00Z_MSC_CAPS_WindU_IsbL-0400_RLatLon0.03_PT001H.grib2 2026-05-08 06:06 946K
20260508T00Z_MSC_CAPS_WindU_IsbL-0450_RLatLon0.03_PT001H.grib2 2026-05-08 06:06 957K
20260508T00Z_MSC_CAPS_WindU_IsbL-0500_RLatLon0.03_PT001H.grib2 2026-05-08 06:06 852K
20260508T00Z_MSC_CAPS_WindU_IsbL-0550_RLatLon0.03_PT001H.grib2 2026-05-08 06:06 876K
20260508T00Z_MSC_CAPS_WindU_IsbL-0600_RLatLon0.03_PT001H.grib2 2026-05-08 06:06 904K
20260508T00Z_MSC_CAPS_WindU_IsbL-0650_RLatLon0.03_PT001H.grib2 2026-05-08 06:06 938K
20260508T00Z_MSC_CAPS_WindU_IsbL-0700_RLatLon0.03_PT001H.grib2 2026-05-08 06:06 1.2M
20260508T00Z_MSC_CAPS_WindU_IsbL-0750_RLatLon0.03_PT001H.grib2 2026-05-08 06:06 1.3M
20260508T00Z_MSC_CAPS_WindU_IsbL-0800_RLatLon0.03_PT001H.grib2 2026-05-08 06:06 1.4M
20260508T00Z_MSC_CAPS_WindU_IsbL-0850_RLatLon0.03_PT001H.grib2 2026-05-08 06:06 1.5M
20260508T00Z_MSC_CAPS_WindU_IsbL-0875_RLatLon0.03_PT001H.grib2 2026-05-08 06:06 1.5M
20260508T00Z_MSC_CAPS_WindU_IsbL-0900_RLatLon0.03_PT001H.grib2 2026-05-08 06:06 1.5M
20260508T00Z_MSC_CAPS_WindU_IsbL-0925_RLatLon0.03_PT001H.grib2 2026-05-08 06:06 1.6M
20260508T00Z_MSC_CAPS_WindU_IsbL-0950_RLatLon0.03_PT001H.grib2 2026-05-08 06:06 1.3M
20260508T00Z_MSC_CAPS_WindU_IsbL-0970_RLatLon0.03_PT001H.grib2 2026-05-08 06:06 1.3M
20260508T00Z_MSC_CAPS_WindU_IsbL-0985_RLatLon0.03_PT001H.grib2 2026-05-08 06:06 1.7M
20260508T00Z_MSC_CAPS_WindU_IsbL-1000_RLatLon0.03_PT001H.grib2 2026-05-08 06:06 1.8M
20260508T00Z_MSC_CAPS_WindU_IsbL-1015_RLatLon0.03_PT001H.grib2 2026-05-08 06:06 1.9M
20260508T00Z_MSC_CAPS_WindV_AGL-10m_RLatLon0.03_PT001H.grib2 2026-05-08 06:06 1.9M
20260508T00Z_MSC_CAPS_WindV_AGL-120m_RLatLon0.03_PT001H.grib2 2026-05-08 06:06 1.1M
20260508T00Z_MSC_CAPS_WindV_AGL-40m_RLatLon0.03_PT001H.grib2 2026-05-08 06:06 1.2M
20260508T00Z_MSC_CAPS_WindV_AGL-80m_RLatLon0.03_PT001H.grib2 2026-05-08 06:06 1.1M
20260508T00Z_MSC_CAPS_WindV_IsbL-0050_RLatLon0.03_PT001H.grib2 2026-05-08 06:06 784K
20260508T00Z_MSC_CAPS_WindV_IsbL-0100_RLatLon0.03_PT001H.grib2 2026-05-08 06:06 765K
20260508T00Z_MSC_CAPS_WindV_IsbL-0150_RLatLon0.03_PT001H.grib2 2026-05-08 06:06 891K
20260508T00Z_MSC_CAPS_WindV_IsbL-0175_RLatLon0.03_PT001H.grib2 2026-05-08 06:06 829K
20260508T00Z_MSC_CAPS_WindV_IsbL-0200_RLatLon0.03_PT001H.grib2 2026-05-08 06:06 650K
20260508T00Z_MSC_CAPS_WindV_IsbL-0225_RLatLon0.03_PT001H.grib2 2026-05-08 06:06 671K
20260508T00Z_MSC_CAPS_WindV_IsbL-0250_RLatLon0.03_PT001H.grib2 2026-05-08 06:06 688K
20260508T00Z_MSC_CAPS_WindV_IsbL-0275_RLatLon0.03_PT001H.grib2 2026-05-08 06:06 697K
20260508T00Z_MSC_CAPS_WindV_IsbL-0300_RLatLon0.03_PT001H.grib2 2026-05-08 06:06 707K
20260508T00Z_MSC_CAPS_WindV_IsbL-0350_RLatLon0.03_PT001H.grib2 2026-05-08 06:06 933K
20260508T00Z_MSC_CAPS_WindV_IsbL-0400_RLatLon0.03_PT001H.grib2 2026-05-08 06:06 941K
20260508T00Z_MSC_CAPS_WindV_IsbL-0450_RLatLon0.03_PT001H.grib2 2026-05-08 06:06 952K
20260508T00Z_MSC_CAPS_WindV_IsbL-0500_RLatLon0.03_PT001H.grib2 2026-05-08 06:06 965K
20260508T00Z_MSC_CAPS_WindV_IsbL-0550_RLatLon0.03_PT001H.grib2 2026-05-08 06:06 1.0M
20260508T00Z_MSC_CAPS_WindV_IsbL-0600_RLatLon0.03_PT001H.grib2 2026-05-08 06:06 1.0M
20260508T00Z_MSC_CAPS_WindV_IsbL-0650_RLatLon0.03_PT001H.grib2 2026-05-08 06:06 1.0M
20260508T00Z_MSC_CAPS_WindV_IsbL-0700_RLatLon0.03_PT001H.grib2 2026-05-08 06:06 966K
20260508T00Z_MSC_CAPS_WindV_IsbL-0750_RLatLon0.03_PT001H.grib2 2026-05-08 06:06 1.0M
20260508T00Z_MSC_CAPS_WindV_IsbL-0800_RLatLon0.03_PT001H.grib2 2026-05-08 06:06 1.1M
20260508T00Z_MSC_CAPS_WindV_IsbL-0850_RLatLon0.03_PT001H.grib2 2026-05-08 06:06 1.1M
20260508T00Z_MSC_CAPS_WindV_IsbL-0875_RLatLon0.03_PT001H.grib2 2026-05-08 06:06 1.2M
20260508T00Z_MSC_CAPS_WindV_IsbL-0900_RLatLon0.03_PT001H.grib2 2026-05-08 06:06 1.2M
20260508T00Z_MSC_CAPS_WindV_IsbL-0925_RLatLon0.03_PT001H.grib2 2026-05-08 06:06 1.3M
20260508T00Z_MSC_CAPS_WindV_IsbL-0950_RLatLon0.03_PT001H.grib2 2026-05-08 06:06 1.6M
20260508T00Z_MSC_CAPS_WindV_IsbL-0970_RLatLon0.03_PT001H.grib2 2026-05-08 06:06 1.7M
20260508T00Z_MSC_CAPS_WindV_IsbL-0985_RLatLon0.03_PT001H.grib2 2026-05-08 06:06 1.7M
20260508T00Z_MSC_CAPS_WindV_IsbL-1000_RLatLon0.03_PT001H.grib2 2026-05-08 06:06 1.9M
20260508T00Z_MSC_CAPS_WindV_IsbL-1015_RLatLon0.03_PT001H.grib2 2026-05-08 06:06 1.9M